Hourly Data Report for September 29, 2016

SHEARWATER RCS
NOVA SCOTIA

44°37'47.000" N
63°30'48.000" W
24.00 m
8205092
71264
AAW

Download Data

Hourly Data (September 2016)
Hourly Data Report for September 29, 2016
TIME Temp Definition
°C
Dew Point Definition
°C
Rel Hum Definition
%
Wind Dir Definition
10's deg

Wind Spd Definition
km/h
Visibility Definition
km
Stn Press Definition
kPa
Hmdx Definition


Wind Chill Definition


Weather Definition


00:00 12.3 10.0 86 2 14   102.50     LegendNANA
01:00 12.4 10.0 86 2 15   102.48     LegendNANA
02:00 12.3 10.1 86 2 15   102.43     LegendNANA
03:00 12.4 10.1 86 1 16   102.38     LegendNANA
04:00 12.4 10.1 86 36 18   102.39     LegendNANA
05:00 12.4 9.9 85 36 17   102.41     LegendNANA
06:00 12.5 9.4 82 36 19   102.48     LegendNANA
07:00 12.0 9.4 84 36 19   102.48     LegendNANA
08:00 12.6 9.4 81 35 19   102.55     LegendNANA
09:00 14.7 9.1 69 1 22   102.54     LegendNANA
10:00 15.9 8.5 61 36 23   102.53     LegendNANA
11:00 16.4 6.6 52 36 30   102.55     LegendNANA
12:00 16.9 6.7 51 35 28   102.60     LegendNANA
13:00 16.0 7.1 56 36 28   102.63     LegendNANA
14:00 16.1 7.8 58 35 27   102.63     LegendNANA
15:00 14.8 8.2 65 36 20   102.68     LegendNANA
16:00 14.1 8.3 68 36 20   102.72     LegendNANA
17:00 13.3 7.0 65 36 21   102.78     LegendNANA
18:00 12.3 6.3 67 34 17   102.84     LegendNANA
19:00 11.2 6.1 71 35 12   102.90     LegendNANA
20:00 10.3 6.1 75 35 17   102.92     LegendNANA
21:00 9.4 6.0 79 34 14   102.97     LegendNANA
22:00 8.5 5.7 83 35 9   103.00     LegendNANA
23:00 8.0 5.5 85 33 10   103.00     LegendNANA

Notes on Data Quality.

Legend

  • E = Estimated
  • M = Missing
  • NA = Not Available*
  • [empty] = Indicates an unobserved value
Date modified: